International Virtual Aviation Organisation

Russian Federation and Kazakhstan MCD

 

Карточка аэропорта UIAA

Внимание!
Информация на этой странице в стадии наполнения.
Если вы не увидели какой-то информации, или заметили неточность - пожалуйста сообщите нам!
Спасибо!
Команда RU-STAFF
Название аэропортаКадала
Название аэропорта (англ.)Kadala
Превышение2272 ft. (692.5 m.)
Координаты52°1.5779999999999', 113°18.3'
Высота перехода1850m
Эшелон переходаFL100
Коды ответчика3350-3377
Зона ОрВДИркутск РПИ (UIII)
Данные METARUIAA 260530Z 06003MPS 010V120 9999 NSC M03/M19 Q1019 R29/410160 NOSIG RMK QFE705/0941
Проноз погоды (TAF)UIAA 260500Z 2606/2706 02005G10MPS 9999 NSC TEMPO 2609/2706 30003G08MPS
NOTAMshow/hide NOTAM
AWOS   TABLE

Информация о ВПП


Диспетчерские позиции

Позывной Наименование органа УВД Частота
UIAA_APPЧита-Подход122.0
UIAA_TWRЧита-Вышка118.1



Спутниковое изображение